KE0DYO Weather Reports


time (UTC)temp
F
wind
direction
speed
knots
gust
knots
rain 1hr
in
rain 24hr
in
rain mn
in
humidity
%
barometer
mb
20260505011555 75 360 0.0 0.0 0.00 0.00 0.00 58 1003.1
20260505010014 76 360 0.0 0.0 0.00 0.00 0.00 57 1002.9
20260505004521 77 360 0.0 0.9 0.00 0.00 0.00 55 1002.8
20260505003042 77 360 0.0 1.7 0.00 0.00 0.00 55 1002.7
20260505001556 78 360 0.0 1.7 0.00 0.00 0.00 55 1002.6
20260505000014 78 360 0.9 2.6 0.00 0.00 0.00 53 1002.6
20260504234526 79 360 0.9 2.6 0.00 0.00 0.00 51 1002.6
20260504233039 79 360 0.9 3.5 0.00 0.00 0.00 49 1002.7
20260504231558 80 360 1.7 3.5 0.00 0.00 0.00 52 1002.7
20260504230008 79 360 1.7 9.6 0.00 0.00 0.00 48 1002.7
20260504224524 80 360 0.9 8.7 0.00 0.00 0.00 52 1002.7
20260504223034 80 360 2.6 8.7 0.00 0.00 0.00 50 1002.7
20260504221604 80 360 2.6 7.0 0.00 0.00 0.00 51 1002.7
20260504220024 81 360 3.5 7.8 0.00 0.00 0.00 47 1002.8
20260504214538 81 360 1.7 6.1 0.00 0.00 0.00 50 1002.9
20260504213112 81 360 2.6 9.6 0.00 0.00 0.00 47 1002.8
20260504211508 81 360 3.5 8.7 0.00 0.00 0.00 49 1002.9
20260504210026 81 360 0.9 6.1 0.00 0.00 0.00 49 1002.9
20260504204538 80 360 2.6 6.1 0.00 0.00 0.00 51 1003.1
20260504203056 81 360 1.7 6.1 0.00 0.00 0.00 48 1003.3
20260504201505 80 360 2.6 9.6 0.00 0.00 0.00 49 1003.4
20260504200026 80 360 3.5 8.7 0.00 0.00 0.00 49 1003.5
20260504194542 79 360 1.7 5.2 0.00 0.00 0.00 47 1003.6
20260504193055 79 360 2.6 7.0 0.00 0.00 0.00 49 1003.6
20260504191529 79 360 2.6 7.0 0.00 0.00 0.00 50 1003.6
20260504190030 78 360 2.6 5.2 0.00 0.00 0.00 49 1003.8
20260504184546 78 360 1.7 8.7 0.00 0.00 0.00 53 1003.8
20260504183006 78 360 2.6 8.7 0.00 0.00 0.00 53 1004.0
20260504181522 77 360 0.9 5.2 0.00 0.00 0.00 55 1003.9
20260504180048 77 360 3.5 7.8 0.00 0.00 0.00 52 1004.1
20260504174550 76 360 1.7 7.8 0.00 0.00 0.00 50 1004.3
20260504173006 76 360 1.7 7.8 0.00 0.00 0.00 53 1004.3
20260504171532 76 360 2.6 6.1 0.00 0.00 0.00 54 1004.3
20260504081538 62 360 0.0 1.7 0.00 0.00 0.00 65 1007.2
20260504080114 62 360 0.0 0.0 0.00 0.00 0.00 67 1007.3
20260504050107 66 360 0.0 1.7 0.00 0.00 0.00 66 1009.8
20260504044502 67 360 0.0 2.6 0.00 0.00 0.00 64 1009.4
20260504043016 68 360 1.7 5.2 0.00 0.00 0.00 59 1009.7
20260504041532 68 360 2.6 5.2 0.00 0.00 0.00 60 1009.6
20260504040110 68 360 2.6 8.7 0.00 0.00 0.00 59 1009.7
20260504034505 68 360 5.2 7.0 0.00 0.00 0.00 59 1010.1
20260504033012 67 360 1.7 3.5 0.00 0.00 0.00 60 1009.7
20260504031535 68 360 1.7 3.5 0.00 0.00 0.00 59 1009.7
20260504030045 66 360 1.7 2.6 0.00 0.00 0.00 61 1009.9
20260504024502 68 360 0.9 5.2 0.00 0.00 0.00 61 1010.1
20260504023021 67 360 0.9 1.7 0.00 0.00 0.00 60 1009.9
20260504021536 68 360 0.0 2.6 0.00 0.00 0.00 57 1009.9
20260504020004 70 360 0.0 2.6 0.00 0.00 0.00 57 1010.0
20260504014523 70 360 0.0 0.9 0.00 0.00 0.00 54 1009.9
20260504013036 71 360 0.0 0.0 0.00 0.00 0.00 51 1009.8